Location: Chiavari
(44.3167°N, 9.3167°E)
Time: 20:57:17
(UTC+02:00)

ISS - Visible Passes

Search period start: 25 May 2018 00:00
Search period end: 04 June 2018 00:00
Orbit: 402 x 407 km, 51.6° (Epoch: 26 May)

Date Brightness Start Highest point End Pass type
(mag) Time Alt. Az. Time Alt. Az. Time Alt. Az.
25 May -1.3 00:30:12 10° NW 00:32:52 22° N 00:35:31 10° ENE visible
25 May -1.8 02:06:42 10° NW 02:08:17 25° NW 02:08:17 25° NW visible
25 May -2.3 22:00:16 10° W 22:03:23 39° NNW 22:06:30 10° NE visible
25 May -1.2 23:37:49 10° NW 23:40:27 22° N 23:43:05 10° NE visible
26 May -2.0 01:14:33 10° NW 01:17:15 32° N 01:17:15 32° N visible
26 May -1.3 22:45:20 10° WNW 22:48:02 23° N 22:50:45 10° NE visible
27 May -1.7 00:22:23 10° NW 00:25:13 26° NNE 00:26:26 21° NE visible
27 May -1.0 01:58:44 10° WNW 01:59:03 12° WNW 01:59:03 12° WNW visible
27 May -1.6 21:52:46 10° WNW 21:55:38 27° NNW 21:58:30 10° NE visible
27 May -1.4 23:30:08 10° NW 23:32:49 23° N 23:35:30 10° ENE visible
28 May -1.9 01:06:33 10° NW 01:08:20 28° NW 01:08:20 28° NW visible
28 May -1.3 22:37:45 10° NW 22:40:22 22° N 22:43:01 10° NE visible
29 May -2.5 00:14:23 10° NW 00:17:28 37° NNE 00:17:41 37° NNE visible
29 May -1.4 21:45:15 10° WNW 21:47:55 22° N 21:50:36 10° NE visible
29 May -1.9 23:22:11 10° NW 23:25:05 28° NNE 23:27:04 16° ENE visible
30 May -1.6 00:58:32 10° WNW 00:59:41 20° WNW 00:59:41 20° WNW visible
30 May -1.6 22:29:55 10° NW 22:32:39 24° N 22:35:23 10° ENE visible
31 May -3.2 00:06:18 10° NW 00:09:06 56° NNW 00:09:06 56° NNW visible
31 May -1.5 21:37:32 10° NW 21:40:11 22° N 21:42:49 10° ENE visible
31 May -2.8 23:14:05 10° NW 23:17:13 42° NNE 23:18:31 27° ENE visible
01 Jun -1.1 00:50:42 10° WNW 00:51:08 13° WNW 00:51:08 13° WNW visible
01 Jun -2.2 22:21:51 10° NW 22:24:49 31° NNE 22:27:47 10° E visible
01 Jun -2.9 23:58:14 10° WNW 00:00:36 41° W 00:00:36 41° W visible
02 Jun -3.8 23:05:56 10° WNW 23:09:13 79° NNE 23:10:05 45° ESE visible
03 Jun -3.1 22:13:40 10° NW 22:16:52 48° NNE 22:19:35 13° E visible
03 Jun -2.0 23:50:24 10° W 23:52:13 22° WSW 23:52:13 22° WSW visible
